Location: Jefferson
(30.9666°N, 81.7901°W)
Time: 18:32:08
(UTC+00:00)

ACS3 Solar Sail - Pass Details

Date: 22 September 2024
Orbit: 961 x 1035 km, 97.4° (Epoch: 08 October)

Event Time Altitude Azimuth Distance (km) Brightness Sun altitude
Exits shadow 02:30:11 40° 284° (WNW) 1,489 3.0 -39.2°
Drops below altitude 10° 02:35:18 10° 333° (NNW) 2,845 4.7 -40.1°
Sets 02:37:59 0° 340° (NNW) 3,799 5.5 -40.6°
